This demonstration page uses our WeatherBlox Daily Observations layout. Learn more.

39.01783, -85.05884

Hourly Observations for January 25, 2019

Temp ( °F °C ) Dew Point ( °F °C ) Humidity (%) Winds ( mph kmh ) Pressure ( in mb ) Visibility ( mi km ) Precip ( " mm )
12:52 am 00:52 Partly Cloudy 23 -5 15 -9.4 72 72 WNW 16 26 30.09 1019 10 16.09344 0 0
1:52 am 01:52 Mostly Cloudy 22 -5.6 14 -10 71 71 W 17 28 30.12 1020 10 16.09344 0 0
2:52 am 02:52 Mostly Cloudy 20 -6.7 12 -11.1 71 71 W 10 17 30.12 1020 10 16.09344 0 0
3:52 am 03:52 Mostly Clear 18 -7.8 9 -12.8 68 68 W 15 24 30.15 1021 10 16.09344 0 0
4:52 am 04:52 Mostly Clear 15 -9.4 5 -15 64 64 W 17 28 30.18 1022 10 16.09344 0 0
5:52 am 05:52 Mostly Clear 13 -10.6 4 -15.6 67 67 W 13 20 30.21 1023 10 16.09344 0 0
6:52 am 06:52 Clear 11 -11.7 0 -17.8 61 61 W 16 26 30.24 1024 10 16.09344 0 0
7:52 am 07:52 Mostly Sunny 10 -12.2 0 -17.8 63 63 W 13 20 30.27 1025 10 16.09344 0 0
8:52 am 08:52 Mostly Sunny 11 -11.7 1 -17.2 64 64 W 13 20 30.27 1025 10 16.09344 0 0
9:52 am 09:52 Mostly Sunny 13 -10.6 1 -17.2 59 59 W 13 20 30.3 1026 10 16.09344 0 0
10:52 am 10:52 Sunny 16 -8.9 2 -16.7 54 54 W 7 11 30.3 1026 10 16.09344 0 0
11:52 am 11:52 Sunny 17 -8.3 2 -16.7 51 51 W 7 11 30.33 1027 10 16.09344 0 0
12:52 pm 12:52 Sunny 19 -7.2 2 -16.7 47 47 W 7 11 30.3 1026 10 16.09344 0 0
1:52 pm 13:52 Sunny 21 -6.1 1 -17.2 41 41 WSW 10 17 30.27 1025 10 16.09344 0 0
2:52 pm 14:52 Sunny 22 -5.6 3 -16.1 44 44 SW 14 22 30.24 1024 10 16.09344 0 0
3:52 pm 15:52 Sunny 23 -5 2 -16.7 40 40 SW 10 17 30.24 1024 10 16.09344 0 0
4:52 pm 16:52 Sunny 23 -5 3 -16.1 42 42 WSW 7 11 30.24 1024 10 16.09344 0 0
5:52 pm 17:52 Partly Cloudy 21 -6.1 4 -15.6 47 47 S 6 9 30.21 1023 10 16.09344 0 0
6:52 pm 18:52 Partly Cloudy 20 -6.7 5 -15 52 52 SSW 6 9 30.21 1023 10 16.09344 0 0
7:52 pm 19:52 Partly Cloudy 20 -6.7 7 -13.9 57 57 S 8 13 30.21 1023 10 16.09344 0 0
8:52 pm 20:52 Mostly Cloudy 21 -6.1 6 -14.4 52 52 SSW 8 13 30.18 1022 10 16.09344 0 0
9:52 pm 21:52 Cloudy 22 -5.6 7 -13.9 52 52 SW 8 13 30.18 1022 10 16.09344 0 0
10:52 pm 22:52 Cloudy 23 -5 8 -13.3 53 53 WSW 6 9 30.18 1022 10 16.09344 0 0
11:52 pm 23:52 Cloudy 22 -5.6 8 -13.3 55 55 SW 6 9 30.18 1022 10 16.09344 0 0

Powered by AerisWeather